Regional Weather Roundup
Issued by NWS State College, PA

Home | Current Version | Previous Version | Graphics & Text | Print | Product List | Glossary On
Versions: 1 2 3 4 5 6 7 8 9 10 11 12 13 14 15 16 17 18 19 20 21 22 23 24 25 26 27 28 29 30 31 32 33 34 35 36 37 38 39 40 41 42 43 44 45 46 47 48 49 50
000
ASUS41 KCTP 020703
RWRCTP

REGIONAL WEATHER ROUNDUP
NATIONAL WEATHER SERVICE STATE COLLEGE PA
300 AM EDT SUN AUG 02 2015

Note: "fair" indicates few or no clouds below 12,000 feet with no
significant weather and/or obstructions to visibility.

* = STATION THAT DOES NOT REPORT PRECIPITATION /E.G. RAIN...SNOW...ETC/
    THUNDER OR FOG.

PAZ002>004-007>009-013>016-020>023-029>032-020800-
WESTERN PENNSYLVANIA

CITY           SKY/WX    TMP DP  RH WIND       PRES   REMARKS
ERIE           PTCLDY    67  54  63 S9        29.89S
MEADVILLE      CLEAR     63  52  67 SW5       29.94S
FRANKLIN*      PTCLDY    61  50  67 SW6       29.96S
NEW CASTLE     FAIR      60  57  89 CALM      29.95F
BEAVER COUNTY  NOT AVBL
BUTLER*        CLEAR     59  55  88 CALM      29.98S
PITTSBURGH INT PTCLDY    67  56  67 CALM      29.96S
PITTSBURGH     MOCLDY    68  52  56 SW8       29.96S
INDIANA*       MOCLDY    64  59  82 CALM      30.00F
LATROBE        NOT AVBL
WASHINGTON CO* NOT AVBL
$$

PAZ004>006-010>012-017>019-024>028-033>037-041-042-045-046-049>053-020800-
CENTRAL PENNSYLVANIA

CITY           SKY/WX    TMP DP  RH WIND       PRES   REMARKS
BRADFORD       PTCLDY    52  49  89 CALM      29.95F
DUBOIS         CLEAR     61  55  81 SW3       29.96S
CLEARFIELD     PTCLDY    58  56  93 CALM      29.97S
JOHNSTOWN      CLEAR     62  52  69 S6        30.00F
ALTOONA        CLEAR     59  57  93 CALM      29.97F
STATE COLLEGE  CLEAR     59  56  91 S3        29.95S
WILLIAMSPORT   CLEAR     61  56  83 CALM      29.92R
SELINSGROVE    CLEAR     57  55  93 CALM      29.93S
FT INDIANTOWN  CLEAR     72  56  55 VRB6      29.90F
CAPITAL CITY   CLEAR     69  57  65 CALM      29.91S
HARRISBURG     CLEAR     70  58  65 CALM      29.90S
YORK           CLEAR     60  58  92 CALM      29.92S
$$

PAZ038>040-043-044-047-048-054-055-060>062-067>071-020800-
EASTERN PENNSYLVANIA

CITY           SKY/WX    TMP DP  RH WIND       PRES   REMARKS
SCRANTON       CLEAR     60  56  86 CALM      29.92R
MOUNT POCONO   CLEAR     56  53  90 CALM      29.95R
ALLENTOWN      CLEAR     66  57  72 SW3       29.90R
QUAKERTOWN*    MOSUNNY   64  59  82 CALM      29.91S
READING        CLEAR     65  60  84 CALM      29.89S
LANCASTER      CLEAR     66  58  75 SW3       29.91S
COATESVILLE    SUNNY     66  59  77 W5        29.93S
POTTSTOWN      CLEAR     65  60  84 CALM      29.92R
BLUE BELL      NOT AVBL
DOYLESTOWN     CLEAR     65  59  81 CALM      29.89S
WILLOW GROVE   NOT AVBL
NORTH PHILA    CLEAR     71  57  61 W3        29.90S
PHILADELPHIA   PTCLDY    74  59  59 NW7       29.89S
$$



USA.gov is the U.S. government's official web portal to all federal, state and local government web resources and services.